Location: Unspecified
(0.0000°N, 0.0000°E)
Time: 05:24:56
(UTC+00:00)

Freja - Pass Details

Date: 31 May 2024
Orbit: 548 x 1731 km, 63.0° (Epoch: 13 June)

Event Time Altitude Azimuth Distance (km) Brightness Sun altitude
Rises 20:02:59 0° 322° (NW) 2,738 9.3 -28.8°
Reaches altitude 10° 20:05:18 10° 313° (NW) 1,813 8.3 -29.3°
Enters shadow 20:07:54 30° 278° (W) 999 6.6 -29.9°
